Wahpeton, MN

11:57 PM CST on December 09, 2019 (GMT -0600)
Stern

Weather History for KBWP - October, 2019

Change the Weather History Date:

Wednesday, October 9, 2019

  Actual Average (WUND) Record (WUND)
Temperature  
Mean Temperature 56 °F -  
Max Temperature 69 °F - - (-1)
Min Temperature 41 °F - - (-1)
Degree Days  
Heating Degree Days 10    
Growing Degree Days 6 (Base 50)    
Moisture  
Dew Point 45 °F    
Average Humidity 70    
Maximum Humidity 87    
Minimum Humidity 49    
Precipitation  
Precipitation 0.00 in - - ()
Sea Level Pressure  
Sea Level Pressure 29.73 in    
Wind  
Wind Speed 12 mph ()    
Max Wind Speed 20 mph    
Max Gust Speed 26 mph    
Visibility 9.9 miles    
Events      
Averages and records for this station are not official NWS values.
T = Trace of Precipitation, MM = Missing Value Source: Averaged Metar Reports

Daily Weather History Graph

Daily Weather History Graph

Search for Another Location

Airport or City:

Astronomy

Oct. 09, 2019 Rise Set
Actual Time 7:35 AM CDT 6:51 PM CDT
Civil Twilight 7:05 AM CDT 7:21 PM CDT
Nautical Twilight 6:30 AM CDT 7:56 PM CDT
Astronomical Twilight 5:55 AM CDT 8:30 PM CDT
Moon 5:40 PM CDT (10/9) 3:03 AM CDT (10/9)
Length of Visible Light 12h 16m
Length of Day
11h 16m
Waxing Gibbous, 85% of the Moon is Illuminated
Oct 9
Waxing Gibbous
Oct 13
Full
Oct 21
Last Quarter
Oct 27
New
Nov 4
First Quarter

Hourly Weather History & Observations

Time (CDT) Temp. Windchill Dew Point Humidity Pressure Visibility Wind Dir Wind Speed Gust Speed Precip Events Conditions
12:15 AM 53.6 °F - 44.6 °F 72% 29.71 in 10.0 mi SE 11.5 mph - N/A   Unknown
12:35 AM 53.6 °F - 44.6 °F 72% 29.70 in 10.0 mi SE 10.4 mph - N/A   Unknown
12:55 AM 53.6 °F - 44.6 °F 72% 29.70 in 10.0 mi SE 11.5 mph - N/A   Unknown
1:15 AM 53.6 °F - 44.6 °F 72% 29.69 in 10.0 mi SE 12.7 mph - N/A   Unknown
1:35 AM 53.6 °F - 44.6 °F 72% 29.68 in 10.0 mi SE 15.0 mph - N/A   Unknown
1:55 AM 53.6 °F - 44.6 °F 72% 29.69 in 10.0 mi SE 13.8 mph - N/A   Unknown
2:15 AM 53.6 °F - 44.6 °F 72% 29.69 in 10.0 mi SSE 11.5 mph 17.3 mph N/A   Unknown
2:35 AM 53.6 °F - 44.6 °F 72% 29.68 in 10.0 mi SE 13.8 mph - N/A   Unknown
2:55 AM 51.8 °F - 42.8 °F 71% 29.67 in 10.0 mi SSE 13.8 mph - N/A   Unknown
3:15 AM 51.8 °F - 42.8 °F 71% 29.67 in 10.0 mi SE 15.0 mph - N/A   Unknown
3:35 AM 51.8 °F - 42.8 °F 71% 29.67 in 10.0 mi SE 13.8 mph 20.7 mph N/A   Unknown
3:55 AM 51.8 °F - 42.8 °F 71% 29.67 in 10.0 mi SE 13.8 mph - N/A   Unknown
4:15 AM 51.8 °F - 42.8 °F 71% 29.67 in 10.0 mi SE 12.7 mph - N/A   Unknown
4:35 AM 51.8 °F - 42.8 °F 71% 29.67 in 10.0 mi SE 13.8 mph - N/A   Unknown
4:55 AM 51.8 °F - 42.8 °F 71% 29.67 in 10.0 mi SE 13.8 mph - N/A   Unknown
5:15 AM 51.8 °F - 42.8 °F 71% 29.67 in 10.0 mi SE 13.8 mph 19.6 mph N/A   Unknown
5:35 AM 51.8 °F - 42.8 °F 71% 29.67 in 10.0 mi SE 13.8 mph - N/A   Unknown
5:55 AM 51.8 °F - 44.6 °F 76% 29.67 in 10.0 mi SE 15.0 mph 18.4 mph N/A   Unknown
6:15 AM 51.8 °F - 44.6 °F 76% 29.67 in 10.0 mi SE 13.8 mph - N/A   Unknown
6:35 AM 51.8 °F - 44.6 °F 76% 29.68 in 10.0 mi SE 13.8 mph - N/A   Unknown
6:55 AM 50.0 °F - 44.6 °F 82% 29.68 in 10.0 mi SE 11.5 mph - N/A   Unknown
7:15 AM 50.0 °F - 44.6 °F 82% 29.69 in 10.0 mi SE 11.5 mph - N/A   Unknown
7:35 AM 50.0 °F - 44.6 °F 82% 29.69 in 10.0 mi SE 10.4 mph - N/A   Unknown
7:55 AM 51.8 °F - 44.6 °F 76% 29.69 in 10.0 mi SE 12.7 mph - N/A   Unknown
8:15 AM 51.8 °F - 44.6 °F 76% 29.69 in 10.0 mi SE 12.7 mph - N/A   Unknown
8:35 AM 51.8 °F - 44.6 °F 76% 29.69 in 10.0 mi SE 11.5 mph 19.6 mph N/A   Unknown
8:55 AM 51.8 °F - 44.6 °F 76% 29.69 in 10.0 mi SE 13.8 mph 18.4 mph N/A   Unknown
9:15 AM 53.6 °F - 46.4 °F 77% 29.69 in 10.0 mi SE 17.3 mph 24.2 mph N/A   Unknown
9:35 AM 53.6 °F - 46.4 °F 77% 29.69 in 10.0 mi SSE 15.0 mph 21.9 mph N/A   Unknown
9:55 AM 55.4 °F - 46.4 °F 72% 29.69 in 10.0 mi SSE 11.5 mph - N/A   Unknown
10:15 AM 57.2 °F - 48.2 °F 72% 29.70 in 10.0 mi SSE 11.5 mph - N/A   Unknown
10:35 AM 59.0 °F - 48.2 °F 67% 29.70 in 10.0 mi SSE 15.0 mph 19.6 mph N/A   Unknown
10:55 AM 60.8 °F - 48.2 °F 63% 29.69 in 10.0 mi South 16.1 mph 21.9 mph N/A   Unknown
11:15 AM 62.6 °F - 50.0 °F 63% 29.69 in 10.0 mi South 16.1 mph - N/A   Unknown
11:35 AM 62.6 °F - 50.0 °F 63% 29.70 in 10.0 mi South 18.4 mph 23.0 mph N/A   Unknown
11:55 AM 62.6 °F - 48.2 °F 59% 29.70 in 10.0 mi South 17.3 mph 20.7 mph N/A   Unknown
12:15 PM 64.4 °F - 50.0 °F 59% 29.70 in 10.0 mi South 13.8 mph 19.6 mph N/A   Unknown
12:35 PM 64.4 °F - 50.0 °F 59% 29.70 in 10.0 mi SSE 17.3 mph 21.9 mph N/A   Unknown
12:55 PM 64.4 °F - 48.2 °F 56% 29.69 in 10.0 mi South 16.1 mph 20.7 mph N/A   Unknown
1:15 PM 68.0 °F - 50.0 °F 52% 29.69 in 10.0 mi South 19.6 mph 24.2 mph N/A   Unknown
1:35 PM 66.2 °F - 48.2 °F 52% 29.70 in 10.0 mi South 18.4 mph 26.5 mph N/A   Unknown
1:55 PM 66.2 °F - 48.2 °F 52% 29.69 in 10.0 mi South 13.8 mph 20.7 mph N/A   Unknown
2:15 PM 68.0 °F - 50.0 °F 52% 29.69 in 10.0 mi South 15.0 mph 18.4 mph N/A   Unknown
2:35 PM 68.0 °F - 50.0 °F 52% 29.69 in 10.0 mi South 13.8 mph - N/A   Unknown
2:55 PM 69.8 °F - 50.0 °F 49% 29.69 in 10.0 mi South 16.1 mph 20.7 mph N/A   Unknown
3:15 PM 69.8 °F - 50.0 °F 49% 29.70 in 10.0 mi South 15.0 mph 23.0 mph N/A   Unknown
3:35 PM 68.0 °F - 50.0 °F 52% 29.70 in 10.0 mi SSW 10.4 mph 18.4 mph N/A   Unknown
3:55 PM 68.0 °F - 50.0 °F 52% 29.71 in 10.0 mi SSW 13.8 mph 17.3 mph N/A   Unknown
4:15 PM 69.8 °F - 50.0 °F 49% 29.71 in 10.0 mi SSW 15.0 mph 20.7 mph N/A   Unknown
4:35 PM 68.0 °F - 48.2 °F 49% 29.72 in 10.0 mi SSW 13.8 mph - N/A   Unknown
5:15 PM 66.2 °F - 50.0 °F 56% 29.74 in 10.0 mi SW 6.9 mph - N/A   Unknown
5:35 PM 64.4 °F - 50.0 °F 59% 29.75 in 10.0 mi West 8.1 mph - N/A   Unknown
5:55 PM 64.4 °F - 50.0 °F 59% 29.76 in 10.0 mi NW 10.4 mph - N/A   Unknown
6:15 PM 55.4 °F - 48.2 °F 77% 29.78 in 10.0 mi NNW 12.7 mph - N/A   Unknown
6:35 PM 53.6 °F - 46.4 °F 77% 29.79 in 10.0 mi NNW 12.7 mph - N/A   Unknown
6:55 PM 51.8 °F - 44.6 °F 76% 29.80 in 10.0 mi NNW 13.8 mph - N/A   Unknown
7:15 PM 51.8 °F - 44.6 °F 76% 29.81 in 10.0 mi North 16.1 mph 19.6 mph N/A   Unknown
7:35 PM 50.0 °F - 44.6 °F 82% 29.82 in 10.0 mi North 16.1 mph - N/A   Unknown
7:55 PM 50.0 °F - 44.6 °F 82% 29.83 in 10.0 mi NNW 11.5 mph 17.3 mph N/A   Unknown
8:15 PM 50.0 °F - 44.6 °F 82% 29.84 in 10.0 mi NNW 15.0 mph 19.6 mph N/A   Unknown
8:35 PM 48.2 °F - 42.8 °F 82% 29.85 in 10.0 mi North 17.3 mph - N/A   Unknown
8:55 PM 46.4 °F 41.5 °F 42.8 °F 87% 29.86 in 10.0 mi NNW 10.4 mph 17.3 mph N/A   Unknown
9:15 PM 46.4 °F 41.1 °F 42.8 °F 87% 29.87 in 10.0 mi NNW 11.5 mph - N/A   Unknown
9:35 PM 46.4 °F 40.1 °F 42.8 °F 87% 29.88 in 10.0 mi North 15.0 mph 18.4 mph N/A   Unknown
9:55 PM 44.6 °F 38.1 °F 41.0 °F 87% 29.88 in 10.0 mi North 13.8 mph 19.6 mph N/A   Unknown
10:15 PM 44.6 °F 38.4 °F 41.0 °F 87% 29.90 in 10.0 mi North 12.7 mph 17.3 mph N/A   Unknown
10:35 PM 44.6 °F 37.8 °F 39.2 °F 81% 29.90 in 10.0 mi North 15.0 mph 21.9 mph N/A   Unknown
10:55 PM 42.8 °F 36.2 °F 39.2 °F 87% 29.91 in 10.0 mi North 12.7 mph 17.3 mph N/A   Unknown
11:15 PM 42.8 °F 36.6 °F 37.4 °F 81% 29.91 in 10.0 mi North 11.5 mph - N/A   Unknown
11:35 PM 42.8 °F 37.0 °F 37.4 °F 81% 29.92 in 7.0 mi NNW 10.4 mph 20.7 mph N/A   Unknown
11:55 PM 41.0 °F 33.9 °F 37.4 °F 87% 29.92 in 7.0 mi NNW 12.7 mph - N/A   Unknown